Time,TemperatureF,DewpointF,PressureIn,WindDirection,WindDirectionDegrees,WindSpeedMPH,WindSpeedGustMPH,Humidity,HourlyPrecipIn,Conditions,Clouds,dailyrainin,SoftwareType,DateUTC
2013-11-02 00:00:00,83.9,78.9,29.86,NE,45,5.0,13.0,85,0.00,,,0.00,VWS V14.01,2013-11-02 06:00:00,
2013-11-02 00:30:00,83.7,78.7,29.85,ENE,68,5.0,14.0,85,0.00,,,0.00,VWS V14.01,2013-11-02 06:30:00,
2013-11-02 01:00:00,83.7,78.3,29.84,ENE,68,5.0,11.0,84,0.00,,,0.00,VWS V14.01,2013-11-02 07:00:00,
2013-11-02 01:30:00,83.6,78.3,29.83,ENE,68,5.0,12.0,84,0.00,,,0.00,VWS V14.01,2013-11-02 07:30:00,
2013-11-02 02:00:00,83.3,78.3,29.81,NE,45,4.0,12.0,85,0.00,,,0.00,VWS V14.01,2013-11-02 08:00:00,
2013-11-02 02:30:00,83.2,78.2,29.81,NE,45,3.0,10.0,85,0.00,,,0.00,VWS V14.01,2013-11-02 08:30:00,
2013-11-02 03:00:00,83.1,78.1,29.81,ENE,68,3.0,11.0,85,0.00,,,0.00,VWS V14.01,2013-11-02 09:00:00,
2013-11-02 03:30:00,83.3,78.3,29.82,ENE,68,4.0,10.0,85,0.00,,,0.00,VWS V14.01,2013-11-02 09:30:00,
2013-11-02 04:00:00,83.0,78.0,29.82,ENE,68,4.0,11.0,85,0.00,,,0.00,VWS V14.01,2013-11-02 10:00:00,
2013-11-02 04:30:00,82.6,78.3,29.83,ENE,68,4.0,10.0,87,0.00,,,0.00,VWS V14.01,2013-11-02 10:30:00,
2013-11-02 05:00:00,82.3,78.4,29.84,ENE,68,4.0,7.0,88,0.00,,,0.00,VWS V14.01,2013-11-02 11:00:00,
2013-11-02 05:30:00,82.5,77.9,29.85,ENE,68,4.0,9.0,86,0.00,,,0.00,VWS V14.01,2013-11-02 11:30:00,
2013-11-02 06:00:00,82.8,78.5,29.86,East,90,4.0,8.0,87,0.00,,,0.00,VWS V14.01,2013-11-02 12:00:00,
2013-11-02 06:30:00,83.8,78.8,29.87,East,90,4.0,7.0,85,0.00,,,0.00,VWS V14.01,2013-11-02 12:30:00,
2013-11-02 07:00:00,84.4,78.7,29.88,East,90,4.0,7.0,83,0.00,,,0.00,VWS V14.01,2013-11-02 13:00:00,
2013-11-02 07:30:00,84.6,78.9,29.89,ESE,112,4.0,7.0,83,0.00,,,0.00,VWS V14.01,2013-11-02 13:30:00,
2013-11-02 08:00:00,86.2,79.3,29.89,ESE,112,4.0,6.0,80,0.00,,,0.00,VWS V14.01,2013-11-02 14:00:00,
2013-11-02 08:30:00,88.1,79.6,29.90,SE,135,3.0,6.0,76,0.00,,,0.00,VWS V14.01,2013-11-02 14:30:00,
2013-11-02 09:00:00,89.3,79.9,29.90,SE,135,2.0,6.0,74,0.00,,,0.00,VWS V14.01,2013-11-02 15:00:00,
2013-11-02 09:30:00,90.3,79.6,29.89,SE,135,2.0,4.0,71,0.00,,,0.00,VWS V14.01,2013-11-02 15:30:00,
2013-11-02 10:00:00,89.6,79.4,29.88,SSW,202,1.0,3.0,72,0.00,,,0.00,VWS V14.01,2013-11-02 16:00:00,
2013-11-02 10:30:00,90.2,79.9,29.88,SSW,202,2.0,5.0,72,0.00,,,0.00,VWS V14.01,2013-11-02 16:30:00,
2013-11-02 11:00:00,90.9,80.2,29.87,SE,135,2.0,4.0,71,0.00,,,0.00,VWS V14.01,2013-11-02 17:00:00,
2013-11-02 11:30:00,90.5,80.2,29.85,SSW,202,2.0,4.0,72,0.00,,,0.00,VWS V14.01,2013-11-02 17:30:00,
2013-11-02 12:00:00,88.9,79.1,29.84,SSW,202,2.0,5.0,73,0.00,,,0.00,VWS V14.01,2013-11-02 18:00:00,
2013-11-02 12:30:00,89.8,79.1,29.82,SSW,202,2.0,6.0,71,0.00,,,0.00,VWS V14.01,2013-11-02 18:30:00,
2013-11-02 13:00:00,88.1,79.6,29.82,ENE,68,3.0,10.0,76,0.00,,,0.00,VWS V14.01,2013-11-02 19:00:00,
2013-11-02 13:30:00,89.2,79.8,29.80,NW,315,3.0,8.0,74,0.00,,,0.00,VWS V14.01,2013-11-02 19:30:00,
2013-11-02 14:00:00,89.2,79.4,29.80,WNW,292,3.0,10.0,73,0.00,,,0.00,VWS V14.01,2013-11-02 20:00:00,
2013-11-02 14:30:00,88.1,78.4,29.80,WNW,292,3.0,9.0,73,0.00,,,0.00,VWS V14.01,2013-11-02 20:30:00,
2013-11-02 15:00:00,87.9,78.6,29.79,NW,315,3.0,11.0,74,0.00,,,0.00,VWS V14.01,2013-11-02 21:00:00,
2013-11-02 15:30:00,87.3,78.0,29.79,NW,315,3.0,9.0,74,0.00,,,0.00,VWS V14.01,2013-11-02 21:30:00,
2013-11-02 16:00:00,87.2,78.3,29.80,NW,315,3.0,8.0,75,0.00,,,0.00,VWS V14.01,2013-11-02 22:00:00,
2013-11-02 16:30:00,87.5,78.2,29.80,NNE,22,1.0,5.0,74,0.00,,,0.00,VWS V14.01,2013-11-02 22:30:00,
2013-11-02 17:00:00,86.3,78.2,29.81,NE,45,1.0,5.0,77,0.00,,,0.00,VWS V14.01,2013-11-02 23:00:00,
2013-11-02 17:30:00,83.9,78.2,29.82,NE,45,1.0,5.0,83,0.00,,,0.00,VWS V14.01,2013-11-02 23:30:00,
2013-11-02 18:00:00,83.2,77.1,29.84,NNE,22,1.0,5.0,82,0.00,,,0.00,VWS V14.01,2013-11-03 00:00:00,
2013-11-02 18:30:00,84.0,77.5,29.85,ENE,68,3.0,8.0,81,0.00,,,0.00,VWS V14.01,2013-11-03 00:30:00,
2013-11-02 19:00:00,84.3,75.9,29.86,ENE,68,4.0,9.0,76,0.00,,,0.00,VWS V14.01,2013-11-03 01:00:00,
2013-11-02 19:30:00,83.9,76.7,29.88,ENE,68,3.0,7.0,79,0.00,,,0.00,VWS V14.01,2013-11-03 01:30:00,
2013-11-02 20:00:00,83.9,76.7,29.88,ENE,68,3.0,6.0,79,0.00,,,0.00,VWS V14.01,2013-11-03 02:00:00,
2013-11-02 20:30:00,83.8,76.2,29.89,ENE,68,3.0,7.0,78,0.00,,,0.00,VWS V14.01,2013-11-03 02:30:00,
2013-11-02 21:00:00,83.7,76.1,29.89,ENE,68,3.0,9.0,78,0.00,,,0.00,VWS V14.01,2013-11-03 03:00:00,
2013-11-02 21:30:00,83.4,76.2,29.89,ENE,68,2.0,6.0,79,0.00,,,0.00,VWS V14.01,2013-11-03 03:30:00,
2013-11-02 22:00:00,83.0,76.2,29.90,ENE,68,1.0,4.0,80,0.00,,,0.00,VWS V14.01,2013-11-03 04:00:00,
2013-11-02 22:30:00,81.6,75.9,29.90,NE,45,0.0,2.0,83,0.00,,,0.00,VWS V14.01,2013-11-03 04:30:00,
2013-11-02 23:00:00,80.2,75.6,29.90,NNW,338,0.0,1.0,86,0.00,,,0.00,VWS V14.01,2013-11-03 05:00:00,
2013-11-02 23:30:00,79.8,75.6,29.89,NNW,338,0.0,2.0,87,0.00,,,0.00,VWS V14.01,2013-11-03 05:30:00,